sat.trackr.live / text

‹ back to catalog

SHIJIAN-20 (SJ-20)

NORAD 44910 · 2019-097A

PAYLOAD ACTIVE UNKNOWN

§ Identity

Operator
Country
PRC
Launch date
2019-12-27
Launch site
WSC
Launch vehicle
Mass (kg)
RCS (m²)

Purposes: comms

External: N2YO · Heavens-Above · Gunter

§ Orbital elements

Epoch: 2026-05-25T00:32:00.571776Z

Period
1,436.15 min
Inclination
4.8624°
Eccentricity
0.0013052
Mean motion
1.00268272 rev/d
Perigee alt
35,732.5 km
Apogee alt
35,842.6 km
Semi-major
42,165.7 km
B*
0.0000e+0
RAAN
75.3422°
Arg perigee
50.1648°
Mean anomaly
169.8830°
Rev number
2,346

§ Raw data

SHIJIAN-20 (SJ-20)1 44910U 19097A   26145.02222884  .00000134  00000+0  00000+0 0  99962 44910   4.8624  75.3422 0013052  50.1648 169.8830  1.00268272 23460

JSON: /api/v1/satellites/44910 · /tle

For live sub-satellite position, see the globe view (requires WebGL).

§ Visibility from observer

Set your observer location to see the next 7 days of passes ≥ 10°. The values pass through the URL so the page stays shareable.

No JS? Fill the form by hand. The geolocation button needs JavaScript.